Simultaneous Nadir Overpasses (SNOs) Predictions

Prediction of SNOs between METOP-A and TERRA Satellite Orbit:

Table of predicted SNOs for the next 14.0 days since TLE Epoch: 8/31/2013
Index Date (METOP-A) Time (METOP-A) Lat,Lon (METOP-A) SZA (METOP-A ) Date (TERRA) Time (TERRA) Lat,Lon (TERRA) SZA (TERRA ) Distance(km) Time Diff (sec)
1 09/02/2013 09:27:22 81.30, 85.17 76.32 09/02/2013 09:27:53 81.31, 85.24 76.35 1.50 31
2 09/02/2013 10:18:02 -81.30,-107.30 103.65 09/02/2013 10:17:20 -81.31,-107.20 103.66 1.65 42
3 09/05/2013 05:01:45 81.30, 151.43 77.36 09/05/2013 05:02:08 81.30, 151.55 77.38 1.98 23
4 09/05/2013 05:52:25 -81.30, -41.03 102.61 09/05/2013 05:51:35 -81.30, -40.87 102.62 2.76 50
5 09/08/2013 00:36:06 81.30,-141.96 78.45 09/08/2013 00:36:21 81.31,-141.89 78.47 1.44 15
6 09/08/2013 01:26:46 -81.30, 25.58 101.51 09/08/2013 01:25:48 -81.31, 25.71 101.52 2.24 58
7 09/10/2013 20:10:28 81.30, -75.40 79.56 09/10/2013 20:10:35 81.31, -75.46 79.56 1.17 7
8 09/10/2013 21:01:08 -81.31, 92.15 100.41 09/10/2013 21:00:02 -81.31, 92.17 100.44 0.33 66
9 09/13/2013 14:54:11 -81.29,-176.99 99.45 09/13/2013 14:55:23 -81.30,-176.80 99.39 3.31 72
10 09/13/2013 15:44:51 81.30, -9.28 80.62 09/13/2013 15:44:49 81.30, -9.15 80.63 2.11 2




NCC Satellite Simultaneous Nadir Overpasses (SNOs) Prediction Service
